Location: Newark
(31.0436°N, 112.2008°E)
Time: 06:43:36
(UTC+00:00)

N. Korean satellite - Pass Details

Date: 02 February 2020
Orbit: 456 x 505 km, 97.2° (Epoch: 27 February)

Event Time Altitude Azimuth Distance (km) Brightness Sun altitude
Rises 21:13:12 0° 37° (NE) 2,580 10.7 -27.9°
Reaches altitude 10° 21:16:22 10° 68° (ENE) 1,701 10.1 -27.3°
Maximum altitude 21:17:58 12° 94° (E) 1,553 10.1 -26.9°
Drops below altitude 10° 21:19:34 10° 120° (ESE) 1,704 10.1 -26.6°
Sets 21:22:44 0° 151° (SSE) 2,587 10.7 -25.9°
